Location: Newark
(35.6799°N, 139.7636°E)
Time: 00:26:25
(UTC+00:00)

Transit 2A - Pass Details

Date: 14 December 2019
Orbit: 601 x 957 km, 66.7° (Epoch: 20 January)

Event Time Altitude Azimuth Distance (km) Brightness Sun altitude
Rises 06:39:05 0° 322° (NW) 2,907 9.0 7.6°
Reaches altitude 10° 06:41:26 10° 313° (NW) 2,029 8.4 7.3°
Maximum altitude 06:45:33 34° 248° (WSW) 1,105 8.1 6.6°
Drops below altitude 10° 06:49:58 10° 185° (S) 2,184 9.0 5.8°
Sets 06:52:35 0° 176° (S) 3,163 9.6 5.4°
